Terug naar catalogus

STARLINK-30336

ActiefCommunicatieVLEO
NORAD 57703·PAYLOAD·🇺🇸 United States

Gelanceerd Aug 27, 2023 vanaf Cape Canaveral Space Force Station

Loading…

Volgende Passages (komende 24 uur)

TLE

VersSource: CelesTrak SupGP

Epoch: Sep 14, 2026, 20:46 UTC

1 57703C 23129F   26257.86576389 -.00015929  00000+0 -57714-3 0  2574
2 57703  42.9993 129.5395 0001355 267.7299 128.8627 15.27575375    12

Volg STARLINK-30336 in realtime met AllMySat

Download on the App Store